Flag for U.S.A. Weather past 2 weeks in San Jose, California, U.S.A.

Now
69 °F

Passing clouds.


Feels Like: 69 °F
Forecast: 60 / 78 °F
Wind: 12 mph from Northwest

Location: San Jose International Airport

Current Time: Aug 30, 2015 at 9:58:00 PM

Latest Report: Aug 30, 2015 at 8:53 PM


Visibility: 10 mi

Pressure: 29.96 "Hg

Humidity: 61%

Dew point: 55 °F

Location of San JoseLocation

Historic Weather in San Jose — Graph

°F

San Jose temperature yesterday

Maximum temperature yesterday: 79 °F (at 12:53 PM)
Minimum temperature yesterday: 64 °F (at 11:53 PM)
Average temperature yesterday: 71 °F

Past Weeks' High & Low Weather Summary

 TemperatureHumidityPressure
High97 °F (Aug 16, 2:53 PM)94% (Aug 29, 4:00 AM)30.06 "Hg (Aug 29, 4:00 AM)
Low59 °F (Aug 18, 5:53 AM)18% (Aug 27, 2:53 PM)29.79 "Hg (Aug 16, 4:53 PM)
Average70 °F65%29.93 "Hg
* Reported Aug 15 7:53 PM — Aug 30 7:53 PM, San Jose, Weather by CustomWeather, © 2015

Note: Actual official high and low records may vary slightly from our data, if they occured in-between our weather recording intervals... More about our weather records

Advertising

San Jose weather history for previous 24 hours

 ConditionsComfort  
Time TempWeatherWind HumidityBarometerVisibility
7:53 PM
Sun, Aug 30
71 °FPassing clouds.14 mph59%29.95 "Hg10 mi
6:53 PM73 °FSunny.16 mph59%29.95 "Hg10 mi
5:53 PM75 °FPassing clouds.18 mph60%29.96 "Hg10 mi
4:53 PM77 °FPassing clouds.18 mph48%29.96 "Hg10 mi
3:53 PM77 °FPassing clouds.18 mph45%29.98 "Hg10 mi
2:53 PM77 °FPassing clouds.16 mph44%30.00 "Hg10 mi
1:53 PM77 °FPassing clouds.16 mph47%30.02 "Hg10 mi
12:53 PM75 °FPassing clouds.14 mph54%30.03 "Hg10 mi
11:53 AM74 °FPassing clouds.10 mph57%30.04 "Hg10 mi
10:53 AM72 °FPassing clouds.9 mph59%30.05 "Hg10 mi
9:53 AM69 °FScattered clouds.3 mph68%30.05 "Hg10 mi
8:53 AM67 °FBroken clouds.5 mph73%30.05 "Hg10 mi
7:53 AM64 °FPartly sunny.5 mph75%30.05 "Hg10 mi
6:53 AM64 °FPassing clouds.5 mph78%30.03 "Hg10 mi
5:53 AM64 °FPassing clouds.6 mph75%30.01 "Hg10 mi
5:04 AM63 °FPassing clouds.7 mph77%30.01 "Hg10 mi
4:53 AM63 °FPassing clouds.6 mph78%30.01 "Hg10 mi
3:53 AM63 °FPassing clouds.5 mph75%30.01 "Hg10 mi
2:53 AM64 °FPassing clouds.3 mph75%30.00 "Hg10 mi
1:53 AM66 °FOvercast.10 mph75%30.01 "Hg10 mi
12:53 AM64 °FPassing clouds.8 mph84%30.01 "Hg10 mi
11:53 PM
Sat, Aug 29
64 °FPassing clouds.7 mph84%30.01 "Hg10 mi
10:53 PM65 °FPassing clouds.8 mph81%30.01 "Hg10 mi
9:53 PM66 °FPassing clouds.13 mph70%30.01 "Hg10 mi
Weather by CustomWeather, © 2015

See weather overviewHow to use our weather pages